owner,sensor,date,latitude,longitude,vertical_datum,sea_water_practical_salinity,qcFlag 
NERRS,ioos:station:NOAA.NERRS:gndbhwq:1,2015-08-01T00:00:00Z,30.4178,-88.4054,1.01,21.7,1111122 
NERRS,ioos:station:NOAA.NERRS:gndbhwq:1,2015-08-01T01:00:00Z,30.4178,-88.4054,1.01,21.9,1111122 
NERRS,ioos:station:NOAA.NERRS:gndbhwq:1,2015-08-01T02:00:00Z,30.4178,-88.4054,0.86,21.5,1111122 
NERRS,ioos:station:NOAA.NERRS:gndbhwq:1,2015-08-01T03:00:00Z,30.4178,-88.4054,1.01,22.0,1111122 
NERRS,ioos:station:NOAA.NERRS:gndbhwq:1,2015-08-01T04:00:00Z,30.4178,-88.4054,0.98,21.9,1111122 
NERRS,ioos:station:NOAA.NERRS:gndbhwq:1,2015-08-01T05:00:00Z,30.4178,-88.4054,1.08,22.2,1111122 
NERRS,ioos:station:NOAA.NERRS:gndbhwq:1,2015-08-01T06:00:00Z,30.4178,-88.4054,1.04,22.1,1111122 
NERRS,ioos:station:NOAA.NERRS:gndbhwq:1,2015-08-01T07:00:00Z,30.4178,-88.4054,1.14,22.0,1111122 
NERRS,ioos:station:NOAA.NERRS:gndbhwq:1,2015-08-01T08:00:00Z,30.4178,-88.4054,1.15,22.1,1111122 
NERRS,ioos:station:NOAA.NERRS:gndbhwq:1,2015-08-01T09:00:00Z,30.4178,-88.4054,1.17,22.1,1111122 
NERRS,ioos:station:NOAA.NERRS:gndbhwq:1,2015-08-01T10:00:00Z,30.4178,-88.4054,1.24,22.1,1111122 
NERRS,ioos:station:NOAA.NERRS:gndbhwq:1,2015-08-01T11:00:00Z,30.4178,-88.4054,1.24,22.1,1111122 
NERRS,ioos:station:NOAA.NERRS:gndbhwq:1,2015-08-01T12:00:00Z,30.4178,-88.4054,1.31,22.1,1111122 
NERRS,ioos:station:NOAA.NERRS:gndbhwq:1,2015-08-01T13:00:00Z,30.4178,-88.4054,1.37,22.2,1111122 
NERRS,ioos:station:NOAA.NERRS:gndbhwq:1,2015-08-01T14:00:00Z,30.4178,-88.4054,1.47,22.2,1111122 
NERRS,ioos:station:NOAA.NERRS:gndbhwq:1,2015-08-01T16:00:00Z,30.4178,-88.4054,1.51,22.3,1111122 
NERRS,ioos:station:NOAA.NERRS:gndbhwq:1,2015-08-01T17:00:00Z,30.4178,-88.4054,1.49,22.2,1111122 
NERRS,ioos:station:NOAA.NERRS:gndbhwq:1,2015-08-01T18:00:00Z,30.4178,-88.4054,1.43,22.2,1111122 
NERRS,ioos:station:NOAA.NERRS:gndbhwq:1,2015-08-01T19:00:00Z,30.4178,-88.4054,1.34,22.3,1111122 
NERRS,ioos:station:NOAA.NERRS:gndbhwq:1,2015-08-01T20:00:00Z,30.4178,-88.4054,1.29,22.4,1111122 
NERRS,ioos:station:NOAA.NERRS:gndbhwq:1,2015-08-01T21:00:00Z,30.4178,-88.4054,1.21,22.5,1111122 
NERRS,ioos:station:NOAA.NERRS:gndbhwq:1,2015-08-01T22:00:00Z,30.4178,-88.4054,1.1,22.6,1111122 
NERRS,ioos:station:NOAA.NERRS:gndbhwq:1,2015-08-01T23:00:00Z,30.4178,-88.4054,1.1,23.2,1111122 
NERRS,ioos:station:NOAA.NERRS:gndbhwq:1,2015-08-02T00:00:00Z,30.4178,-88.4054,1.02,23.0,1111122 
NERRS,ioos:station:NOAA.NERRS:gndbhwq:1,2015-08-02T01:00:00Z,30.4178,-88.4054,0.98,22.5,1111122 
NERRS,ioos:station:NOAA.NERRS:gndbhwq:1,2015-08-02T02:00:00Z,30.4178,-88.4054,0.98,23.4,1111122 
NERRS,ioos:station:NOAA.NERRS:gndbhwq:1,2015-08-02T03:00:00Z,30.4178,-88.4054,1.06,23.7,1111122 
NERRS,ioos:station:NOAA.NERRS:gndbhwq:1,2015-08-02T04:00:00Z,30.4178,-88.4054,1.07,24.2,1111122 
NERRS,ioos:station:NOAA.NERRS:gndbhwq:1,2015-08-02T05:00:00Z,30.4178,-88.4054,1.08,24.3,1111122 
NERRS,ioos:station:NOAA.NERRS:gndbhwq:1,2015-08-02T06:00:00Z,30.4178,-88.4054,1.14,24.6,1111122 
NERRS,ioos:station:NOAA.NERRS:gndbhwq:1,2015-08-02T07:00:00Z,30.4178,-88.4054,1.2,24.8,1111122 
NERRS,ioos:station:NOAA.NERRS:gndbhwq:1,2015-08-02T08:00:00Z,30.4178,-88.4054,1.2,24.9,1111122 
NERRS,ioos:station:NOAA.NERRS:gndbhwq:1,2015-08-02T09:00:00Z,30.4178,-88.4054,1.22,25.0,1111122 
NERRS,ioos:station:NOAA.NERRS:gndbhwq:1,2015-08-02T10:00:00Z,30.4178,-88.4054,1.19,25.0,1111122 
NERRS,ioos:station:NOAA.NERRS:gndbhwq:1,2015-08-02T11:00:00Z,30.4178,-88.4054,1.24,25.0,1111122 
NERRS,ioos:station:NOAA.NERRS:gndbhwq:1,2015-08-03T03:00:00Z,30.4178,-88.4054,1.18,24.5,1111122 
NERRS,ioos:station:NOAA.NERRS:gndbhwq:1,2015-08-03T04:00:00Z,30.4178,-88.4054,1.17,24.6,1111122 
NERRS,ioos:station:NOAA.NERRS:gndbhwq:1,2015-08-03T05:00:00Z,30.4178,-88.4054,1.16,24.4,1111122 
NERRS,ioos:station:NOAA.NERRS:gndbhwq:1,2015-08-04T03:00:00Z,30.4178,-88.4054,1.12,24.2,1111122 
NERRS,ioos:station:NOAA.NERRS:gndbhwq:1,2015-08-04T04:00:00Z,30.4178,-88.4054,1.17,24.3,1111122 
NERRS,ioos:station:NOAA.NERRS:gndbhwq:1,2015-08-04T05:00:00Z,30.4178,-88.4054,1.19,24.4,1111122 
NERRS,ioos:station:NOAA.NERRS:gndbhwq:1,2015-08-04T06:00:00Z,30.4178,-88.4054,1.17,24.4,1111122 
NERRS,ioos:station:NOAA.NERRS:gndbhwq:1,2015-08-04T07:00:00Z,30.4178,-88.4054,1.16,24.3,1111122 
NERRS,ioos:station:NOAA.NERRS:gndbhwq:1,2015-08-04T08:00:00Z,30.4178,-88.4054,1.15,24.4,1111122 
NERRS,ioos:station:NOAA.NERRS:gndbhwq:1,2015-08-04T09:00:00Z,30.4178,-88.4054,1.2,24.5,1111122 
NERRS,ioos:station:NOAA.NERRS:gndbhwq:1,2015-08-04T10:00:00Z,30.4178,-88.4054,1.2,24.6,1111122 
NERRS,ioos:station:NOAA.NERRS:gndbhwq:1,2015-08-04T11:00:00Z,30.4178,-88.4054,1.18,24.5,1111122 
NERRS,ioos:station:NOAA.NERRS:gndbhwq:1,2015-08-04T12:00:00Z,30.4178,-88.4054,1.16,24.6,1111122 
NERRS,ioos:station:NOAA.NERRS:gndbhwq:1,2015-08-04T13:00:00Z,30.4178,-88.4054,1.17,24.7,1111122 
NERRS,ioos:station:NOAA.NERRS:gndbhwq:1,2015-08-04T14:00:00Z,30.4178,-88.4054,1.19,24.6,1111122 
NERRS,ioos:station:NOAA.NERRS:gndbhwq:1,2015-08-04T19:00:00Z,30.4178,-88.4054,1.2,24.3,1111122 
NERRS,ioos:station:NOAA.NERRS:gndbhwq:1,2015-08-04T20:00:00Z,30.4178,-88.4054,1.27,24.2,1111122 
NERRS,ioos:station:NOAA.NERRS:gndbhwq:1,2015-08-04T22:00:00Z,30.4178,-88.4054,1.25,24.0,1111122 
NERRS,ioos:station:NOAA.NERRS:gndbhwq:1,2015-08-04T23:00:00Z,30.4178,-88.4054,1.26,24.1,1111122 
NERRS,ioos:station:NOAA.NERRS:gndbhwq:1,2015-08-05T00:00:00Z,30.4178,-88.4054,1.2,23.9,1111122 
NERRS,ioos:station:NOAA.NERRS:gndbhwq:1,2015-08-05T01:00:00Z,30.4178,-88.4054,1.24,23.9,1111122 
NERRS,ioos:station:NOAA.NERRS:gndbhwq:1,2015-08-05T02:00:00Z,30.4178,-88.4054,1.25,23.8,1111122 
NERRS,ioos:station:NOAA.NERRS:gndbhwq:1,2015-08-05T03:00:00Z,30.4178,-88.4054,1.27,23.9,1111122 
NERRS,ioos:station:NOAA.NERRS:gndbhwq:1,2015-08-05T04:00:00Z,30.4178,-88.4054,1.32,23.8,1111122 
NERRS,ioos:station:NOAA.NERRS:gndbhwq:1,2015-08-05T05:00:00Z,30.4178,-88.4054,1.3,23.8,1111122 
NERRS,ioos:station:NOAA.NERRS:gndbhwq:1,2015-08-05T06:00:00Z,30.4178,-88.4054,1.31,23.9,1111122 
NERRS,ioos:station:NOAA.NERRS:gndbhwq:1,2015-08-05T07:00:00Z,30.4178,-88.4054,1.24,23.8,1111122 
NERRS,ioos:station:NOAA.NERRS:gndbhwq:1,2015-08-05T08:00:00Z,30.4178,-88.4054,1.3,23.8,1111122 
NERRS,ioos:station:NOAA.NERRS:gndbhwq:1,2015-08-05T09:00:00Z,30.4178,-88.4054,1.24,23.5,1111122 
NERRS,ioos:station:NOAA.NERRS:gndbhwq:1,2015-08-05T10:00:00Z,30.4178,-88.4054,1.37,23.8,1111122 
NERRS,ioos:station:NOAA.NERRS:gndbhwq:1,2015-08-05T11:00:00Z,30.4178,-88.4054,1.21,23.7,1111122 
NERRS,ioos:station:NOAA.NERRS:gndbhwq:1,2015-08-05T12:00:00Z,30.4178,-88.4054,1.39,23.6,1111122 
NERRS,ioos:station:NOAA.NERRS:gndbhwq:1,2015-08-05T13:00:00Z,30.4178,-88.4054,1.13,23.3,1111122 
NERRS,ioos:station:NOAA.NERRS:gndbhwq:1,2015-08-05T14:00:00Z,30.4178,-88.4054,1.05,23.1,1111122 
NERRS,ioos:station:NOAA.NERRS:gndbhwq:1,2015-08-05T15:00:00Z,30.4178,-88.4054,1.21,23.4,1111122 
NERRS,ioos:station:NOAA.NERRS:gndbhwq:1,2015-08-05T17:00:00Z,30.4178,-88.4054,1.23,23.3,1111122 
NERRS,ioos:station:NOAA.NERRS:gndbhwq:1,2015-08-05T18:00:00Z,30.4178,-88.4054,1.23,23.3,1111122 
NERRS,ioos:station:NOAA.NERRS:gndbhwq:1,2015-08-05T19:00:00Z,30.4178,-88.4054,1.17,23.2,1111122 
NERRS,ioos:station:NOAA.NERRS:gndbhwq:1,2015-08-05T20:00:00Z,30.4178,-88.4054,1.16,23.2,1111122 
NERRS,ioos:station:NOAA.NERRS:gndbhwq:1,2015-08-05T21:00:00Z,30.4178,-88.4054,1.17,23.0,1111122 
NERRS,ioos:station:NOAA.NERRS:gndbhwq:1,2015-08-05T23:00:00Z,30.4178,-88.4054,1.17,22.8,1111122 
NERRS,ioos:station:NOAA.NERRS:gndbhwq:1,2015-08-06T00:00:00Z,30.4178,-88.4054,1.17,22.8,1111122 
NERRS,ioos:station:NOAA.NERRS:gndbhwq:1,2015-08-06T01:00:00Z,30.4178,-88.4054,1.22,22.7,1111122 
NERRS,ioos:station:NOAA.NERRS:gndbhwq:1,2015-08-06T02:00:00Z,30.4178,-88.4054,1.19,22.6,1111122 
NERRS,ioos:station:NOAA.NERRS:gndbhwq:1,2015-08-06T03:00:00Z,30.4178,-88.4054,1.21,22.4,1111122 
NERRS,ioos:station:NOAA.NERRS:gndbhwq:1,2015-08-06T04:00:00Z,30.4178,-88.4054,1.28,22.4,1111122 
NERRS,ioos:station:NOAA.NERRS:gndbhwq:1,2015-08-06T05:00:00Z,30.4178,-88.4054,1.33,22.3,1111122 
NERRS,ioos:station:NOAA.NERRS:gndbhwq:1,2015-08-06T07:00:00Z,30.4178,-88.4054,1.36,22.2,1111122 
NERRS,ioos:station:NOAA.NERRS:gndbhwq:1,2015-08-06T08:00:00Z,30.4178,-88.4054,1.3,21.9,1111122 
NERRS,ioos:station:NOAA.NERRS:gndbhwq:1,2015-08-06T09:00:00Z,30.4178,-88.4054,1.27,21.5,1111122 
NERRS,ioos:station:NOAA.NERRS:gndbhwq:1,2015-08-06T11:00:00Z,30.4178,-88.4054,1.26,21.9,1111122 
NERRS,ioos:station:NOAA.NERRS:gndbhwq:1,2015-08-06T12:00:00Z,30.4178,-88.4054,1.26,22.1,1111122 
NERRS,ioos:station:NOAA.NERRS:gndbhwq:1,2015-08-06T13:00:00Z,30.4178,-88.4054,1.2,21.9,1111122 
NERRS,ioos:station:NOAA.NERRS:gndbhwq:1,2015-08-06T14:00:00Z,30.4178,-88.4054,1.21,22.1,1111122 
NERRS,ioos:station:NOAA.NERRS:gndbhwq:1,2015-08-06T15:00:00Z,30.4178,-88.4054,1.08,21.9,1111122 
NERRS,ioos:station:NOAA.NERRS:gndbhwq:1,2015-08-06T16:00:00Z,30.4178,-88.4054,1.14,21.9,1111122 
NERRS,ioos:station:NOAA.NERRS:gndbhwq:1,2015-08-06T17:00:00Z,30.4178,-88.4054,1.09,21.5,1111122 
NERRS,ioos:station:NOAA.NERRS:gndbhwq:1,2015-08-06T18:00:00Z,30.4178,-88.4054,1.08,21.2,1111122 
NERRS,ioos:station:NOAA.NERRS:gndbhwq:1,2015-08-06T19:00:00Z,30.4178,-88.4054,1.1,21.2,1111122 
NERRS,ioos:station:NOAA.NERRS:gndbhwq:1,2015-08-06T21:00:00Z,30.4178,-88.4054,1.08,21.1,1111122 
NERRS,ioos:station:NOAA.NERRS:gndbhwq:1,2015-08-06T22:00:00Z,30.4178,-88.4054,1.1,21.0,1111122 
NERRS,ioos:station:NOAA.NERRS:gndbhwq:1,2015-08-06T23:00:00Z,30.4178,-88.4054,1.18,20.9,1111122 
NERRS,ioos:station:NOAA.NERRS:gndbhwq:1,2015-08-07T05:00:00Z,30.4178,-88.4054,1.34,20.9,1111122 
NERRS,ioos:station:NOAA.NERRS:gndbhwq:1,2015-08-07T06:00:00Z,30.4178,-88.4054,1.34,20.9,1111122 
NERRS,ioos:station:NOAA.NERRS:gndbhwq:1,2015-08-07T07:00:00Z,30.4178,-88.4054,1.36,20.9,1111122 
NERRS,ioos:station:NOAA.NERRS:gndbhwq:1,2015-08-07T09:00:00Z,30.4178,-88.4054,1.35,21.0,1111122 
NERRS,ioos:station:NOAA.NERRS:gndbhwq:1,2015-08-07T10:00:00Z,30.4178,-88.4054,1.36,21.0,1111122 
NERRS,ioos:station:NOAA.NERRS:gndbhwq:1,2015-08-07T11:00:00Z,30.4178,-88.4054,1.35,21.0,1111122 
NERRS,ioos:station:NOAA.NERRS:gndbhwq:1,2015-08-07T12:00:00Z,30.4178,-88.4054,1.33,21.0,1111122 
NERRS,ioos:station:NOAA.NERRS:gndbhwq:1,2015-08-07T13:00:00Z,30.4178,-88.4054,1.27,21.1,1111122 
NERRS,ioos:station:NOAA.NERRS:gndbhwq:1,2015-08-07T14:00:00Z,30.4178,-88.4054,1.19,20.9,1111122 
NERRS,ioos:station:NOAA.NERRS:gndbhwq:1,2015-08-07T15:00:00Z,30.4178,-88.4054,1.15,21.0,1111122 
NERRS,ioos:station:NOAA.NERRS:gndbhwq:1,2015-08-07T16:00:00Z,30.4178,-88.4054,1.06,21.0,1111122 
NERRS,ioos:station:NOAA.NERRS:gndbhwq:1,2015-08-07T17:00:00Z,30.4178,-88.4054,1.03,20.9,1111122 
NERRS,ioos:station:NOAA.NERRS:gndbhwq:1,2015-08-07T18:00:00Z,30.4178,-88.4054,1.0,20.9,1111122 
NERRS,ioos:station:NOAA.NERRS:gndbhwq:1,2015-08-07T19:00:00Z,30.4178,-88.4054,1.0,20.9,1111122 
NERRS,ioos:station:NOAA.NERRS:gndbhwq:1,2015-08-07T20:00:00Z,30.4178,-88.4054,0.93,21.0,1111122 
NERRS,ioos:station:NOAA.NERRS:gndbhwq:1,2015-08-07T21:00:00Z,30.4178,-88.4054,0.97,20.9,1111122 
NERRS,ioos:station:NOAA.NERRS:gndbhwq:1,2015-08-07T22:00:00Z,30.4178,-88.4054,0.94,20.8,1111122 
NERRS,ioos:station:NOAA.NERRS:gndbhwq:1,2015-08-07T23:00:00Z,30.4178,-88.4054,1.0,20.9,1111122 
NERRS,ioos:station:NOAA.NERRS:gndbhwq:1,2015-08-08T00:00:00Z,30.4178,-88.4054,1.07,20.9,1111122 
NERRS,ioos:station:NOAA.NERRS:gndbhwq:1,2015-08-08T01:00:00Z,30.4178,-88.4054,1.13,20.7,1111122 
NERRS,ioos:station:NOAA.NERRS:gndbhwq:1,2015-08-08T02:00:00Z,30.4178,-88.4054,1.18,20.9,1111122 
NERRS,ioos:station:NOAA.NERRS:gndbhwq:1,2015-08-08T03:00:00Z,30.4178,-88.4054,1.18,20.7,1111122 
NERRS,ioos:station:NOAA.NERRS:gndbhwq:1,2015-08-08T04:00:00Z,30.4178,-88.4054,1.21,20.8,1111122 
NERRS,ioos:station:NOAA.NERRS:gndbhwq:1,2015-08-08T05:00:00Z,30.4178,-88.4054,1.23,20.7,1111122 
NERRS,ioos:station:NOAA.NERRS:gndbhwq:1,2015-08-08T06:00:00Z,30.4178,-88.4054,1.29,20.7,1111122 
NERRS,ioos:station:NOAA.NERRS:gndbhwq:1,2015-08-08T07:00:00Z,30.4178,-88.4054,1.32,20.7,1111122 
NERRS,ioos:station:NOAA.NERRS:gndbhwq:1,2015-08-08T08:00:00Z,30.4178,-88.4054,1.32,20.8,1111122 
NERRS,ioos:station:NOAA.NERRS:gndbhwq:1,2015-08-08T09:00:00Z,30.4178,-88.4054,1.32,20.9,1111122 
NERRS,ioos:station:NOAA.NERRS:gndbhwq:1,2015-08-08T10:00:00Z,30.4178,-88.4054,1.28,20.9,1111122 
NERRS,ioos:station:NOAA.NERRS:gndbhwq:1,2015-08-08T11:00:00Z,30.4178,-88.4054,1.28,21.1,1111122 
NERRS,ioos:station:NOAA.NERRS:gndbhwq:1,2015-08-08T12:00:00Z,30.4178,-88.4054,1.31,21.2,1111122 
NERRS,ioos:station:NOAA.NERRS:gndbhwq:1,2015-08-08T13:00:00Z,30.4178,-88.4054,1.27,21.4,1111122 
NERRS,ioos:station:NOAA.NERRS:gndbhwq:1,2015-08-08T14:00:00Z,30.4178,-88.4054,1.19,21.6,1111122 
NERRS,ioos:station:NOAA.NERRS:gndbhwq:1,2015-08-08T15:00:00Z,30.4178,-88.4054,1.16,22.0,1111122 
NERRS,ioos:station:NOAA.NERRS:gndbhwq:1,2015-08-08T16:00:00Z,30.4178,-88.4054,1.05,21.6,1111122 
NERRS,ioos:station:NOAA.NERRS:gndbhwq:1,2015-08-08T17:00:00Z,30.4178,-88.4054,1.03,22.3,1111122 
NERRS,ioos:station:NOAA.NERRS:gndbhwq:1,2015-08-08T18:00:00Z,30.4178,-88.4054,0.99,22.3,1111122 
NERRS,ioos:station:NOAA.NERRS:gndbhwq:1,2015-08-08T19:00:00Z,30.4178,-88.4054,0.97,22.8,1111122 
NERRS,ioos:station:NOAA.NERRS:gndbhwq:1,2015-08-08T20:00:00Z,30.4178,-88.4054,0.94,22.8,1111122 
NERRS,ioos:station:NOAA.NERRS:gndbhwq:1,2015-08-08T21:00:00Z,30.4178,-88.4054,0.9,22.5,1111122 
NERRS,ioos:station:NOAA.NERRS:gndbhwq:1,2015-08-08T22:00:00Z,30.4178,-88.4054,0.94,22.0,1111122 
NERRS,ioos:station:NOAA.NERRS:gndbhwq:1,2015-08-08T23:00:00Z,30.4178,-88.4054,0.81,22.3,1111122 
NERRS,ioos:station:NOAA.NERRS:gndbhwq:1,2015-08-09T00:00:00Z,30.4178,-88.4054,1.08,23.1,1111122 
NERRS,ioos:station:NOAA.NERRS:gndbhwq:1,2015-08-09T01:00:00Z,30.4178,-88.4054,0.91,21.9,1111122 
NERRS,ioos:station:NOAA.NERRS:gndbhwq:1,2015-08-09T02:00:00Z,30.4178,-88.4054,1.06,22.7,1111122 
NERRS,ioos:station:NOAA.NERRS:gndbhwq:1,2015-08-09T03:00:00Z,30.4178,-88.4054,1.11,23.1,1111122 
NERRS,ioos:station:NOAA.NERRS:gndbhwq:1,2015-08-09T04:00:00Z,30.4178,-88.4054,1.27,22.8,1111122 
NERRS,ioos:station:NOAA.NERRS:gndbhwq:1,2015-08-09T05:00:00Z,30.4178,-88.4054,1.17,22.5,1111122 
NERRS,ioos:station:NOAA.NERRS:gndbhwq:1,2015-08-09T06:00:00Z,30.4178,-88.4054,1.3,22.2,1111122 
NERRS,ioos:station:NOAA.NERRS:gndbhwq:1,2015-08-09T07:00:00Z,30.4178,-88.4054,1.17,22.2,1111122 
NERRS,ioos:station:NOAA.NERRS:gndbhwq:1,2015-08-09T08:00:00Z,30.4178,-88.4054,1.43,22.6,1111122 
NERRS,ioos:station:NOAA.NERRS:gndbhwq:1,2015-08-09T09:00:00Z,30.4178,-88.4054,1.47,22.5,1111122 
NERRS,ioos:station:NOAA.NERRS:gndbhwq:1,2015-08-09T10:00:00Z,30.4178,-88.4054,1.43,22.5,1111122 
NERRS,ioos:station:NOAA.NERRS:gndbhwq:1,2015-08-09T11:00:00Z,30.4178,-88.4054,1.35,22.2,1111122 
NERRS,ioos:station:NOAA.NERRS:gndbhwq:1,2015-08-09T12:00:00Z,30.4178,-88.4054,1.32,22.1,1111122 
NERRS,ioos:station:NOAA.NERRS:gndbhwq:1,2015-08-09T13:00:00Z,30.4178,-88.4054,1.36,22.4,1111122 
NERRS,ioos:station:NOAA.NERRS:gndbhwq:1,2015-08-09T14:00:00Z,30.4178,-88.4054,1.3,22.4,1111122 
NERRS,ioos:station:NOAA.NERRS:gndbhwq:1,2015-08-09T15:00:00Z,30.4178,-88.4054,1.28,22.5,1111122 
NERRS,ioos:station:NOAA.NERRS:gndbhwq:1,2015-08-09T16:00:00Z,30.4178,-88.4054,1.21,22.5,1111122 
NERRS,ioos:station:NOAA.NERRS:gndbhwq:1,2015-08-09T17:00:00Z,30.4178,-88.4054,1.12,22.5,1111122 
NERRS,ioos:station:NOAA.NERRS:gndbhwq:1,2015-08-09T18:00:00Z,30.4178,-88.4054,1.03,22.5,1111122 
NERRS,ioos:station:NOAA.NERRS:gndbhwq:1,2015-08-09T19:00:00Z,30.4178,-88.4054,1.02,22.5,1111122 
NERRS,ioos:station:NOAA.NERRS:gndbhwq:1,2015-08-09T20:00:00Z,30.4178,-88.4054,1.0,22.4,1111122 
NERRS,ioos:station:NOAA.NERRS:gndbhwq:1,2015-08-09T21:00:00Z,30.4178,-88.4054,1.01,22.5,1111122 
NERRS,ioos:station:NOAA.NERRS:gndbhwq:1,2015-08-09T22:00:00Z,30.4178,-88.4054,0.98,22.2,1111122 
NERRS,ioos:station:NOAA.NERRS:gndbhwq:1,2015-08-09T23:00:00Z,30.4178,-88.4054,0.98,21.8,1111122 
NERRS,ioos:station:NOAA.NERRS:gndbhwq:1,2015-08-10T00:00:00Z,30.4178,-88.4054,0.99,21.6,1111122 
NERRS,ioos:station:NOAA.NERRS:gndbhwq:1,2015-08-10T01:00:00Z,30.4178,-88.4054,1.08,21.9,1111122 
NERRS,ioos:station:NOAA.NERRS:gndbhwq:1,2015-08-10T02:00:00Z,30.4178,-88.4054,1.07,21.8,1111122 
NERRS,ioos:station:NOAA.NERRS:gndbhwq:1,2015-08-10T03:00:00Z,30.4178,-88.4054,1.23,22.0,1111122 
NERRS,ioos:station:NOAA.NERRS:gndbhwq:1,2015-08-10T04:00:00Z,30.4178,-88.4054,1.18,21.8,1111122 
NERRS,ioos:station:NOAA.NERRS:gndbhwq:1,2015-08-10T05:00:00Z,30.4178,-88.4054,1.27,21.9,1111122 
NERRS,ioos:station:NOAA.NERRS:gndbhwq:1,2015-08-10T06:00:00Z,30.4178,-88.4054,1.3,22.0,1111122 
NERRS,ioos:station:NOAA.NERRS:gndbhwq:1,2015-08-10T07:00:00Z,30.4178,-88.4054,1.36,22.2,1111122 
NERRS,ioos:station:NOAA.NERRS:gndbhwq:1,2015-08-10T08:00:00Z,30.4178,-88.4054,1.43,22.5,1111122 
NERRS,ioos:station:NOAA.NERRS:gndbhwq:1,2015-08-10T09:00:00Z,30.4178,-88.4054,1.46,22.7,1111122 
NERRS,ioos:station:NOAA.NERRS:gndbhwq:1,2015-08-10T10:00:00Z,30.4178,-88.4054,1.51,22.8,1111122 
NERRS,ioos:station:NOAA.NERRS:gndbhwq:1,2015-08-10T11:00:00Z,30.4178,-88.4054,1.49,23.0,1111122 
NERRS,ioos:station:NOAA.NERRS:gndbhwq:1,2015-08-10T12:00:00Z,30.4178,-88.4054,1.52,23.1,1111122 
NERRS,ioos:station:NOAA.NERRS:gndbhwq:1,2015-08-10T13:00:00Z,30.4178,-88.4054,1.49,23.3,1111122 
NERRS,ioos:station:NOAA.NERRS:gndbhwq:1,2015-08-10T14:00:00Z,30.4178,-88.4054,1.51,23.4,1111122 
NERRS,ioos:station:NOAA.NERRS:gndbhwq:1,2015-08-10T15:00:00Z,30.4178,-88.4054,1.45,23.2,1111122 
NERRS,ioos:station:NOAA.NERRS:gndbhwq:1,2015-08-10T16:00:00Z,30.4178,-88.4054,1.38,23.2,1111122 
NERRS,ioos:station:NOAA.NERRS:gndbhwq:1,2015-08-10T17:00:00Z,30.4178,-88.4054,1.24,23.0,1111122 
NERRS,ioos:station:NOAA.NERRS:gndbhwq:1,2015-08-10T18:00:00Z,30.4178,-88.4054,1.2,22.7,1111122 
NERRS,ioos:station:NOAA.NERRS:gndbhwq:1,2015-08-10T19:00:00Z,30.4178,-88.4054,1.08,22.3,1111122 
NERRS,ioos:station:NOAA.NERRS:gndbhwq:1,2015-08-10T20:00:00Z,30.4178,-88.4054,1.08,22.1,1111122 
NERRS,ioos:station:NOAA.NERRS:gndbhwq:1,2015-08-10T21:00:00Z,30.4178,-88.4054,1.01,21.9,1111122 
NERRS,ioos:station:NOAA.NERRS:gndbhwq:1,2015-08-10T22:00:00Z,30.4178,-88.4054,1.04,21.8,1111122 
NERRS,ioos:station:NOAA.NERRS:gndbhwq:1,2015-08-10T23:00:00Z,30.4178,-88.4054,1.02,21.4,1111122 
NERRS,ioos:station:NOAA.NERRS:gndbhwq:1,2015-08-11T00:00:00Z,30.4178,-88.4054,1.06,21.5,1111122 
NERRS,ioos:station:NOAA.NERRS:gndbhwq:1,2015-08-11T01:00:00Z,30.4178,-88.4054,1.12,21.5,1111122 
NERRS,ioos:station:NOAA.NERRS:gndbhwq:1,2015-08-11T02:00:00Z,30.4178,-88.4054,1.18,21.7,1111122 
NERRS,ioos:station:NOAA.NERRS:gndbhwq:1,2015-08-11T03:00:00Z,30.4178,-88.4054,1.23,21.8,1111122 
NERRS,ioos:station:NOAA.NERRS:gndbhwq:1,2015-08-11T04:00:00Z,30.4178,-88.4054,1.24,22.1,1111122 
NERRS,ioos:station:NOAA.NERRS:gndbhwq:1,2015-08-11T05:00:00Z,30.4178,-88.4054,1.31,22.1,1111122 
NERRS,ioos:station:NOAA.NERRS:gndbhwq:1,2015-08-11T06:00:00Z,30.4178,-88.4054,1.29,22.4,1111122 
NERRS,ioos:station:NOAA.NERRS:gndbhwq:1,2015-08-11T07:00:00Z,30.4178,-88.4054,1.37,22.5,1111122 
NERRS,ioos:station:NOAA.NERRS:gndbhwq:1,2015-08-11T08:00:00Z,30.4178,-88.4054,1.4,22.9,1111122 
NERRS,ioos:station:NOAA.NERRS:gndbhwq:1,2015-08-11T09:00:00Z,30.4178,-88.4054,1.41,22.8,1111122 
NERRS,ioos:station:NOAA.NERRS:gndbhwq:1,2015-08-11T10:00:00Z,30.4178,-88.4054,1.47,23.1,1111122 
NERRS,ioos:station:NOAA.NERRS:gndbhwq:1,2015-08-11T11:00:00Z,30.4178,-88.4054,1.5,23.2,1111122 
NERRS,ioos:station:NOAA.NERRS:gndbhwq:1,2015-08-11T12:00:00Z,30.4178,-88.4054,1.53,23.3,1111122 
NERRS,ioos:station:NOAA.NERRS:gndbhwq:1,2015-08-11T13:00:00Z,30.4178,-88.4054,1.54,23.4,1111122 
NERRS,ioos:station:NOAA.NERRS:gndbhwq:1,2015-08-11T14:00:00Z,30.4178,-88.4054,1.5,23.5,1111122 
NERRS,ioos:station:NOAA.NERRS:gndbhwq:1,2015-08-11T15:00:00Z,30.4178,-88.4054,1.46,23.5,1111122 
NERRS,ioos:station:NOAA.NERRS:gndbhwq:1,2015-08-11T16:00:00Z,30.4178,-88.4054,1.37,23.7,1111122 
NERRS,ioos:station:NOAA.NERRS:gndbhwq:1,2015-08-11T17:00:00Z,30.4178,-88.4054,1.31,23.7,1111122 
NERRS,ioos:station:NOAA.NERRS:gndbhwq:1,2015-08-11T18:00:00Z,30.4178,-88.4054,1.2,23.6,1111122 
NERRS,ioos:station:NOAA.NERRS:gndbhwq:1,2015-08-11T19:00:00Z,30.4178,-88.4054,1.13,23.4,1111122 
NERRS,ioos:station:NOAA.NERRS:gndbhwq:1,2015-08-11T20:00:00Z,30.4178,-88.4054,1.04,23.5,1111122 
NERRS,ioos:station:NOAA.NERRS:gndbhwq:1,2015-08-11T21:00:00Z,30.4178,-88.4054,1.01,23.6,1111122 
NERRS,ioos:station:NOAA.NERRS:gndbhwq:1,2015-08-11T22:00:00Z,30.4178,-88.4054,0.99,23.7,1111122 
NERRS,ioos:station:NOAA.NERRS:gndbhwq:1,2015-08-11T23:00:00Z,30.4178,-88.4054,1.01,23.5,1111122 
NERRS,ioos:station:NOAA.NERRS:gndbhwq:1,2015-08-12T00:00:00Z,30.4178,-88.4054,0.96,23.4,1111122 
NERRS,ioos:station:NOAA.NERRS:gndbhwq:1,2015-08-12T01:00:00Z,30.4178,-88.4054,1.02,23.5,1111122 
NERRS,ioos:station:NOAA.NERRS:gndbhwq:1,2015-08-12T02:00:00Z,30.4178,-88.4054,1.12,24.0,1111122 
NERRS,ioos:station:NOAA.NERRS:gndbhwq:1,2015-08-12T03:00:00Z,30.4178,-88.4054,1.16,23.8,1111122 
NERRS,ioos:station:NOAA.NERRS:gndbhwq:1,2015-08-12T04:00:00Z,30.4178,-88.4054,1.19,23.9,1111122 
NERRS,ioos:station:NOAA.NERRS:gndbhwq:1,2015-08-12T05:00:00Z,30.4178,-88.4054,1.24,24.0,1111122 
NERRS,ioos:station:NOAA.NERRS:gndbhwq:1,2015-08-12T07:00:00Z,30.4178,-88.4054,1.27,24.1,1111122 
NERRS,ioos:station:NOAA.NERRS:gndbhwq:1,2015-08-12T08:00:00Z,30.4178,-88.4054,1.28,24.2,1111122 
NERRS,ioos:station:NOAA.NERRS:gndbhwq:1,2015-08-12T09:00:00Z,30.4178,-88.4054,1.3,24.2,1111122 
NERRS,ioos:station:NOAA.NERRS:gndbhwq:1,2015-08-12T10:00:00Z,30.4178,-88.4054,1.39,24.3,1111122 
NERRS,ioos:station:NOAA.NERRS:gndbhwq:1,2015-08-12T11:00:00Z,30.4178,-88.4054,1.45,24.4,1111122 
NERRS,ioos:station:NOAA.NERRS:gndbhwq:1,2015-08-12T12:00:00Z,30.4178,-88.4054,1.45,24.5,1111122 
NERRS,ioos:station:NOAA.NERRS:gndbhwq:1,2015-08-12T13:00:00Z,30.4178,-88.4054,1.46,24.7,1111122 
NERRS,ioos:station:NOAA.NERRS:gndbhwq:1,2015-08-12T14:00:00Z,30.4178,-88.4054,1.48,24.8,1111122 
NERRS,ioos:station:NOAA.NERRS:gndbhwq:1,2015-08-12T15:00:00Z,30.4178,-88.4054,1.47,24.9,1111122 
NERRS,ioos:station:NOAA.NERRS:gndbhwq:1,2015-08-12T16:00:00Z,30.4178,-88.4054,1.44,25.0,1111122 
NERRS,ioos:station:NOAA.NERRS:gndbhwq:1,2015-08-12T17:00:00Z,30.4178,-88.4054,1.37,25.1,1111122 
NERRS,ioos:station:NOAA.NERRS:gndbhwq:1,2015-08-12T18:00:00Z,30.4178,-88.4054,1.32,25.1,1111122 
NERRS,ioos:station:NOAA.NERRS:gndbhwq:1,2015-08-12T19:00:00Z,30.4178,-88.4054,1.26,24.9,1111122 
NERRS,ioos:station:NOAA.NERRS:gndbhwq:1,2015-08-12T20:00:00Z,30.4178,-88.4054,1.2,25.0,1111122 
NERRS,ioos:station:NOAA.NERRS:gndbhwq:1,2015-08-12T22:00:00Z,30.4178,-88.4054,1.02,24.5,1111122 
NERRS,ioos:station:NOAA.NERRS:gndbhwq:1,2015-08-12T23:00:00Z,30.4178,-88.4054,1.03,24.3,1111122 
NERRS,ioos:station:NOAA.NERRS:gndbhwq:1,2015-08-13T00:00:00Z,30.4178,-88.4054,1.01,24.4,1111122 
NERRS,ioos:station:NOAA.NERRS:gndbhwq:1,2015-08-13T01:00:00Z,30.4178,-88.4054,1.03,24.1,1111122 
NERRS,ioos:station:NOAA.NERRS:gndbhwq:1,2015-08-13T02:00:00Z,30.4178,-88.4054,1.03,24.3,1111122 
NERRS,ioos:station:NOAA.NERRS:gndbhwq:1,2015-08-13T03:00:00Z,30.4178,-88.4054,1.05,24.4,1111122 
NERRS,ioos:station:NOAA.NERRS:gndbhwq:1,2015-08-13T04:00:00Z,30.4178,-88.4054,1.19,24.5,1111122 
NERRS,ioos:station:NOAA.NERRS:gndbhwq:1,2015-08-13T05:00:00Z,30.4178,-88.4054,1.19,24.4,1111122 
NERRS,ioos:station:NOAA.NERRS:gndbhwq:1,2015-08-13T06:00:00Z,30.4178,-88.4054,1.25,24.6,1111122 
NERRS,ioos:station:NOAA.NERRS:gndbhwq:1,2015-08-13T07:00:00Z,30.4178,-88.4054,1.16,24.4,1111122 
NERRS,ioos:station:NOAA.NERRS:gndbhwq:1,2015-08-13T08:00:00Z,30.4178,-88.4054,1.17,24.4,1111122 
NERRS,ioos:station:NOAA.NERRS:gndbhwq:1,2015-08-13T09:00:00Z,30.4178,-88.4054,1.25,24.6,1111122 
NERRS,ioos:station:NOAA.NERRS:gndbhwq:1,2015-08-13T10:00:00Z,30.4178,-88.4054,1.34,24.8,1111122 
NERRS,ioos:station:NOAA.NERRS:gndbhwq:1,2015-08-13T11:00:00Z,30.4178,-88.4054,1.4,24.8,1111122 
NERRS,ioos:station:NOAA.NERRS:gndbhwq:1,2015-08-13T12:00:00Z,30.4178,-88.4054,1.45,24.9,1111122 